Regional Weather Roundup
Issued by NWS

Home | Current Version | Previous Version | Graphics & Text | Print | Product List | Glossary On
Versions: 1 2 3 4 5 6 7 8 9 10 11 12 13 14 15 16 17 18 19 20 21 22 23 24 25 26 27 28 29 30 31 32 33 34 35 36 37 38 39 40 41 42 43 44 45 46 47 48 49 50
000
ASUS43 KFSD 101002
RWRSD

WEATHER ROUNDUP FOR SOUTH DAKOTA
NATIONAL WEATHER SERVICE SIOUX FALLS SD
500 AM CDT THU JUL 10 2014

NOTE: "FAIR" INDICATES FEW OR NO CLOUDS BELOW 12,000 FEET WITH NO
SIGNIFICANT WEATHER AND/OR OBSTRUCTIONS TO VISIBILITY.


SDZ001>005-009-010-012>017-101100-
NORTHWEST AND NORTH CENTRAL SOUTH DAKOTA

CITY           SKY/WX    TMP DP  RH WIND       PRES   REMARKS
BUFFALO          N/A     57  54  89 SE8       29.83F
FAITH            N/A     59  55  87 SE9       29.90F
MOBRIDGE       CLEAR     59  56  89 SE6       29.89F
$$

SDZ012>016-024>037-041>051-057-063-072>074-101100-
SOUTHWEST AND SOUTH CENTRAL SOUTH DAKOTA

CITY           SKY/WX    TMP DP  RH WIND       PRES   REMARKS
RAPID CTY ARPT LGT RAIN  61  58  90 CALM      29.94R
PIERRE         CLEAR     56  54  93 E8        29.91F
CUSTER         TSTM      59  55  87 N14       30.10R
ELLSWORTH AFB  MOCLDY    62  60  94 S8        29.93S
PHILIP         PTCLDY    55  54  96 E5        29.91S FOG
PINE RIDGE     PTCLDY    62  59  90 SW7       29.94R
WINNER         PTSUNNY   63  59  87 SE9       29.93F
$$

SDZ004>011-016>023-039-040-101100-
NORTHEAST SOUTH DAKOTA

CITY           SKY/WX    TMP DP  RH WIND       PRES   REMARKS
ABERDEEN       CLEAR     56  53  90 S3        29.95F
WATERTOWN      CLEAR     59  51  75 SE3       29.98F
SISSETON         N/A     54  53  97 S5        29.97F
$$

SDZ017-020-022-023-036>040-048>070-101100-
SOUTHEAST SOUTH DAKOTA

CITY           SKY/WX    TMP DP  RH WIND       PRES   REMARKS
SIOUX FALLS    CLEAR     59  57  93 CALM      30.00R
HURON          CLEAR     59  56  89 SE5       29.95F
CHAMBERLAIN    MOCLDY    58  57  94 E6        29.94F
MITCHELL       PTCLDY    58  57  97 SE6       29.97R
YANKTON        PTCLDY    57  55  94 E6        29.98S
$$

ABBREVIATIONS USED IN REMARKS
   TC - TEMPERATURE IN CELSIUS
  WCI - WIND CHILL INDEX
   HX - HEAT INDEX
  VSB - VISIBILITY




USA.gov is the U.S. government's official web portal to all federal, state and local government web resources and services.